Theta_e
353 356 359 361 361 360 358 358 359 358 358 358 357 357 357 357 358 357 358 357 357 355 353 353 355 354 353 353 352 352 350 350
350 355 355 361 361 360 357 356 358 358 358 358 358 357 357 357 357 356 355 354 354 354 354 354 355 355 355 354 352 351 349 345
349 354 354 360 361 360 359 357 358 359 359 359 358 357 357 357 356 355 354 354 353 355 354 354 354 354 354 353 353 351 349 346
351 353 353 355 358 360 360 358 358 359 359 359 358 358 357 356 355 354 354 353 354 354 354 354 354 354 353 352 351 351 348 346
350 350 351 354 354 353 355 359 358 358 358 359 358 357 357 356 355 354 354 355 353 354 353 354 353 353 353 352 351 350 347 345
346 347 349 349 351 351 352 354 358 356 356 357 356 357 356 352 350 352 353 353 352 353 353 354 353 353 353 352 351 349 346 340
337 341 345 346 347 350 352 351 351 349 349 350 351 350 351 349 347 350 352 353 353 352 354 355 354 353 350 346 345 347 343 340
336 337 343 344 345 346 348 348 351 351 347 347 348 347 347 348 347 348 348 349 349 353 349 350 351 351 346 344 342 341 340 340
337 337 338 343 343 344 344 344 347 347 347 347 348 345 344 345 342 342 343 344 344 345 347 348 346 346 344 343 341 339 338 337
333 338 337 338 341 342 340 339 341 343 343 344 343 344 344 342 340 340 340 339 339 341 342 343 344 343 341 340 341 340 339 337
333 331 338 336 339 340 338 337 337 339 339 338 340 341 343 341 338 337 336 334 334 335 338 340 341 341 340 340 339 339 339 339
340 339 336 337 337 336 335 335 335 338 339 336 338 339 340 339 338 336 335 335 336 336 336 337 338 339 339 338 337 338 338 338
338 339 337 339 336 335 335 335 337 340 340 338 339 338 336 335 335 336 336 335 336 338 337 335 336 335 335 335 335 336 336 337
336 336 335 337 339 339 337 336 338 337 338 339 337 335 335 334 333 332 332 331 333 332 332 334 335 333 333 334 332 334 334 334
334 336 337 337 336 336 340 341 339 335 334 334 333 335 333 333 334 331 330 329 331 330 330 331 331 333 331 331 331 333 332 333
329 331 333 334 336 335 335 336 337 333 333 333 332 331 332 332 332 331 330 328 329 328 328 330 330 331 330 328 329 329 330 331
325 327 329 331 333 335 334 333 336 337 337 331 330 329 331 331 331 332 329 328 326 327 330 329 329 328 329 330 329 326 322 324
324 325 325 327 330 331 333 332 333 335 334 334 333 334 333 332 332 333 331 329 328 326 328 329 329 329 327 328 330 328 316 317
323 324 324 323 324 328 330 329 327 327 327 331 332 333 333 334 333 334 332 333 334 331 329 331 333 330 329 327 326 329 326 323
Wind_Speed
11 9 14 17 17 17 18 19 19 19 18 18 18 17 16 15 14 13 12 11 11 12 11 11 9 10 11 11 10 9 9 7
13 10 12 15 15 16 16 17 16 16 16 16 17 17 16 14 12 11 11 11 11 11 11 11 11 11 11 10 9 8 6 7
8 9 9 15 15 14 15 15 15 15 15 15 14 14 13 12 12 13 13 13 12 12 12 12 10 10 9 8 7 8 8 8
6 10 5 7 12 16 14 13 14 13 13 13 12 12 12 13 13 13 12 12 12 11 11 11 11 11 11 10 11 10 9 9
8 7 9 9 6 7 9 15 14 14 13 12 12 13 13 13 13 13 11 12 14 13 14 12 12 12 11 11 11 10 11 12
2 5 8 9 10 5 5 8 13 16 14 13 13 13 9 4 6 9 11 14 16 15 14 13 13 13 13 13 13 14 14 5
4 5 8 9 10 10 6 5 6 5 4 5 5 6 5 6 7 9 12 16 16 16 15 16 16 15 14 6 5 11 5 4
6 4 7 8 9 10 8 4 4 4 2 3 5 4 4 4 4 5 3 5 5 10 5 7 7 7 7 5 5 6 7 7
8 8 6 6 6 10 5 4 4 6 7 6 7 6 4 5 4 5 4 4 3 3 4 4 4 6 7 8 9 9 9 7
5 6 8 7 8 8 5 3 3 4 3 4 5 6 6 5 5 3 4 2 3 2 4 4 6 6 8 9 9 9 10 10
10 8 7 10 11 9 6 3 3 3 7 8 9 10 12 9 9 8 6 5 4 3 3 5 6 7 7 7 8 10 12 9
13 12 10 7 5 5 4 6 5 4 4 4 4 6 5 4 5 5 4 3 3 4 5 5 8 5 5 5 9 7 8 9
21 19 17 11 8 1 4 4 4 4 7 7 7 9 13 11 8 1 2 3 5 2 2 3 5 7 7 6 6 6 6 7
18 13 21 18 15 12 7 5 9 12 11 7 3 1 3 3 6 7 7 7 6 5 5 3 4 5 5 4 5 5 6 6
10 13 15 14 14 11 6 5 6 7 7 8 10 9 10 7 13 13 10 11 6 7 7 2 6 5 4 4 5 5 5 6
14 16 15 15 11 6 5 3 2 1 3 4 5 9 10 5 10 8 12 5 7 7 7 8 3 4 6 4 2 3 5 7
13 14 14 14 12 9 6 3 3 2 3 5 4 6 5 8 9 10 11 11 3 5 1 4 3 4 6 6 4 1 2 1
13 12 11 8 8 8 8 4 4 3 3 3 4 4 7 9 10 12 11 10 10 5 5 6 5 8 10 5 10 2 1 4
7 6 7 8 7 5 5 4 4 3 3 3 4 4 6 7 7 7 7 6 7 5 8 11 10 13 9 7 2 6 1 2
Wind_Direction
151 157 163 160 156 158 159 157 156 158 161 163 166 169 170 172 171 172 175 177 182 183 184 186 187 191 194 197 199 201 198 190
160 162 163 165 162 163 167 165 163 163 165 169 170 173 176 177 176 177 179 184 189 192 196 197 198 205 206 206 208 216 215 210
153 158 168 171 171 171 176 176 173 173 175 177 178 179 179 180 184 191 194 196 201 204 205 207 211 216 222 223 224 230 230 227
150 165 170 180 184 182 180 185 186 183 184 182 181 183 186 191 197 201 205 208 212 216 220 220 217 219 220 221 225 230 237 240
167 174 187 196 202 197 190 189 195 193 192 192 191 193 197 200 205 211 213 218 219 221 223 227 228 229 230 233 238 242 246 250
188 221 205 210 214 220 207 200 198 207 201 203 205 208 205 199 212 216 216 217 225 227 230 232 231 232 235 238 239 241 247 242
311 266 242 238 230 221 223 211 192 196 207 202 204 205 203 203 209 214 223 226 229 231 231 232 232 233 235 228 237 250 244 235
219 228 228 239 250 247 238 206 202 204 188 198 211 209 225 229 235 237 233 233 234 240 247 257 258 249 248 244 233 226 232 233
185 201 214 200 218 245 260 267 235 206 205 210 216 205 203 232 236 241 239 241 232 223 245 242 247 244 233 224 226 229 230 231
299 234 208 190 211 221 232 269 265 257 250 223 204 210 205 222 234 239 260 268 260 250 243 250 244 240 237 237 240 234 238 236
329 291 236 207 205 207 228 262 273 335 358 360 2 357 348 346 351 351 351 342 322 298 266 241 240 242 239 228 240 239 243 242
5 322 264 229 229 190 91 236 52 49 19 9 22 42 43 22 353 335 297 271 253 245 244 242 264 238 258 247 244 244 246 251
25 21 38 33 34 61 190 17 74 73 66 47 58 59 52 30 358 291 235 289 305 283 227 231 234 252 231 228 244 249 250 251
52 19 47 43 40 30 32 114 111 113 101 92 65 114 69 21 306 289 283 272 239 237 254 214 271 239 261 220 233 236 235 224
70 62 52 45 34 27 16 59 122 127 143 166 184 224 184 207 220 233 265 253 247 253 250 234 229 231 262 247 229 239 225 215
50 57 56 57 45 39 24 50 107 236 306 329 256 248 263 248 276 259 269 282 227 264 276 248 255 219 252 235 273 231 239 231
52 52 49 49 41 35 30 357 11 320 297 279 276 273 251 275 266 253 263 277 273 233 133 234 214 263 234 191 220 207 253 275
50 48 50 43 39 27 19 5 350 337 313 311 304 283 268 251 253 265 267 269 282 288 276 266 242 245 262 223 210 167 139 223
31 41 40 36 37 42 21 26 13 333 315 302 301 299 303 294 276 269 269 284 275 267 274 268 251 239 229 238 199 224 177 149